When you browse on this site, cookies collect data to enhance your experience and personalize the content and advertising you see.
Visit our Privacy Policy to learn more. By continuing to use the site, you agree to this use of cookies and data.
  • en Suisse
  • Liste des pays
  • À 7 jours
  • Température de l'eau
  • Carte satellitaire
  • Carte météo
  • Widgets météo
  • user-avatar
    Se connecter

    Météo par heure à Korçё

    Ce jour, 17 Juin, Lundi

    Heure Température Précipitation Vent Pression Humidité
    00:00 +16°C° 0 mm 1 m/s 666 mmHg 83%
    01:00 +16°C° 0 mm 1 m/s 666 mmHg 82%
    02:00 +16°C° 0 mm 1 m/s 665 mmHg 83%
    03:00 +16°C° 0 mm 1 m/s 665 mmHg 84%
    04:00 +15°C° 0 mm 1 m/s 665 mmHg 84%
    05:00 +18°C° 0 mm 1 m/s 666 mmHg 79%
    06:00 +20°C° 0 mm 1 m/s 666 mmHg 73%
    07:00 +20°C° 0 mm 0 m/s 667 mmHg 68%
    08:00 +23°C° 0.3 mm 1 m/s 667 mmHg 62%
    09:00 +25°C° 0.3 mm 1 m/s 668 mmHg 55%
    10:00 +26°C° 0.3 mm 1 m/s 668 mmHg 49%
    11:00 +26°C° 0.3 mm 2 m/s 668 mmHg 51%
    12:00 +26°C° 0.3 mm 2 m/s 668 mmHg 53%
    13:00 +25°C° 0.3 mm 2 m/s 668 mmHg 54%
    14:00 +23°C° 3 mm 2 m/s 667 mmHg 63%
    15:00 +20°C° 3 mm 2 m/s 666 mmHg 72%
    16:00 +18°C° 3 mm 3 m/s 666 mmHg 81%
    17:00 +18°C° 0.2 mm 2 m/s 666 mmHg 81%
    18:00 +17°C° 0.2 mm 2 m/s 666 mmHg 82%
    19:00 +16°C° 0.2 mm 1 m/s 666 mmHg 82%
    20:00 +16°C° 0 mm 1 m/s 666 mmHg 81%
    21:00 +15°C° 0 mm 1 m/s 666 mmHg 80%
    22:00 +15°C° 0 mm 1 m/s 666 mmHg 79%
    23:00 +15°C° 0 mm 1 m/s 666 mmHg 79%

    Demain, 18 Juin, Mardi

    Heure Température Précipitation Vent Pression Humidité
    00:00 +14°C° 0 mm 1 m/s 666 mmHg 78%
    01:00 +14°C° 0 mm 1 m/s 666 mmHg 77%
    02:00 +14°C° 0 mm 1 m/s 666 mmHg 77%
    03:00 +14°C° 0 mm 1 m/s 666 mmHg 76%
    04:00 +14°C° 0 mm 1 m/s 666 mmHg 76%
    05:00 +16°C° 0 mm 1 m/s 666 mmHg 71%
    06:00 +19°C° 0 mm 1 m/s 667 mmHg 67%
    07:00 +19°C° 0 mm 0 m/s 668 mmHg 62%
    08:00 +22°C° 0 mm 1 m/s 668 mmHg 58%
    09:00 +24°C° 0 mm 1 m/s 668 mmHg 53%
    10:00 +25°C° 0 mm 1 m/s 669 mmHg 48%
    11:00 +25°C° 0.4 mm 1 m/s 669 mmHg 49%
    12:00 +25°C° 0.4 mm 2 m/s 668 mmHg 50%
    13:00 +25°C° 0.4 mm 2 m/s 668 mmHg 51%
    14:00 +25°C° 1.1 mm 2 m/s 668 mmHg 55%
    15:00 +24°C° 1.1 mm 2 m/s 668 mmHg 58%
    16:00 +24°C° 1.1 mm 2 m/s 667 mmHg 61%
    17:00 +21°C° 0.6 mm 2 m/s 667 mmHg 69%
    18:00 +20°C° 0.6 mm 1 m/s 666 mmHg 76%
    19:00 +19°C° 0.6 mm 1 m/s 666 mmHg 83%
    20:00 +18°C° 0 mm 1 m/s 666 mmHg 84%
    21:00 +16°C° 0 mm 1 m/s 666 mmHg 84%
    22:00 +16°C° 0 mm 1 m/s 666 mmHg 84%
    23:00 +15°C° 0 mm 1 m/s 666 mmHg 83%

    Après-demain, 19 Juin, Mercredi

    Heure Température Précipitation Vent Pression Humidité
    00:00 +14°C° 0 mm 0 m/s 666 mmHg 83%
    01:00 +14°C° 0 mm 0 m/s 665 mmHg 82%
    02:00 +15°C° 0 mm 1 m/s 665 mmHg 82%
    03:00 +14°C° 0 mm 1 m/s 665 mmHg 82%
    04:00 +14°C° 0 mm 1 m/s 665 mmHg 82%
    05:00 +16°C° 0 mm 1 m/s 666 mmHg 78%
    06:00 +19°C° 0 mm 1 m/s 666 mmHg 74%
    07:00 +18°C° 0 mm 0 m/s 667 mmHg 70%
    08:00 +22°C° 0.1 mm 1 m/s 667 mmHg 65%
    09:00 +23°C° 0.1 mm 1 m/s 667 mmHg 61%
    10:00 +24°C° 0.1 mm 2 m/s 668 mmHg 56%
    11:00 +24°C° 0.5 mm 2 m/s 667 mmHg 56%
    12:00 +25°C° 0.5 mm 2 m/s 667 mmHg 57%
    13:00 +25°C° 0.5 mm 3 m/s 667 mmHg 57%
    14:00 +24°C° 0.4 mm 3 m/s 667 mmHg 58%
    15:00 +24°C° 0.4 mm 3 m/s 667 mmHg 59%
    16:00 +24°C° 0.4 mm 3 m/s 666 mmHg 60%
    17:00 +21°C° 0.1 mm 3 m/s 666 mmHg 66%
    18:00 +19°C° 0.1 mm 2 m/s 666 mmHg 73%
    19:00 +18°C° 0.1 mm 1 m/s 665 mmHg 79%
    20:00 +16°C° 0 mm 1 m/s 665 mmHg 80%
    21:00 +16°C° 0 mm 1 m/s 665 mmHg 81%
    22:00 +15°C° 0 mm 1 m/s 665 mmHg 81%
    23:00 +14°C° 0 mm 1 m/s 665 mmHg 80%

    20 Juin, Jeudi

    Heure Température Précipitation Vent Pression Humidité
    00:00 +14°C° 0 mm 1 m/s 665 mmHg 78%
    01:00 +13°C° 0 mm 1 m/s 664 mmHg 76%
    02:00 +13°C° 0 mm 1 m/s 664 mmHg 76%
    03:00 +13°C° 0 mm 1 m/s 664 mmHg 75%
    04:00 +12°C° 0 mm 1 m/s 664 mmHg 74%
    05:00 +15°C° 0 mm 1 m/s 665 mmHg 67%
    06:00 +18°C° 0 mm 1 m/s 665 mmHg 61%
    07:00 +20°C° 0 mm 1 m/s 666 mmHg 55%
    08:00 +21°C° 0 mm 1 m/s 666 mmHg 51%
    09:00 +23°C° 0 mm 1 m/s 667 mmHg 48%
    10:00 +24°C° 0 mm 2 m/s 667 mmHg 44%
    11:00 +24°C° 0 mm 2 m/s 667 mmHg 46%
    12:00 +25°C° 0 mm 3 m/s 667 mmHg 47%
    13:00 +25°C° 0 mm 3 m/s 667 mmHg 49%
    14:00 +25°C° 0 mm 3 m/s 667 mmHg 52%
    15:00 +24°C° 0 mm 3 m/s 667 mmHg 56%
    16:00 +24°C° 0 mm 3 m/s 667 mmHg 60%
    17:00 +21°C° 0.1 mm 3 m/s 666 mmHg 68%
    18:00 +19°C° 0.1 mm 2 m/s 666 mmHg 77%
    19:00 +17°C° 0.1 mm 2 m/s 665 mmHg 86%
    20:00 +18°C° 0 mm 1 m/s 665 mmHg 88%
    21:00 +16°C° 0 mm 1 m/s 666 mmHg 89%
    22:00 +15°C° 0 mm 1 m/s 666 mmHg 90%
    23:00 +15°C° 0 mm 1 m/s 665 mmHg 88%

    21 Juin, Vendredi

    Heure Température Précipitation Vent Pression Humidité
    00:00 +14°C° 0 mm 0 m/s 665 mmHg 86%
    01:00 +14°C° 0 mm 0 m/s 665 mmHg 85%
    02:00 +14°C° 0 mm 0 m/s 665 mmHg 84%
    03:00 +14°C° 0 mm 0 m/s 665 mmHg 84%
    04:00 +14°C° 0 mm 1 m/s 665 mmHg 84%
    05:00 +16°C° 0 mm 1 m/s 666 mmHg 78%
    06:00 +19°C° 0 mm 1 m/s 666 mmHg 72%
    07:00 +21°C° 0 mm 1 m/s 667 mmHg 67%
    08:00 +23°C° 0 mm 1 m/s 668 mmHg 62%
    09:00 +24°C° 0 mm 1 m/s 668 mmHg 57%
    10:00 +26°C° 0 mm 1 m/s 668 mmHg 52%
    11:00 +26°C° 0.4 mm 1 m/s 668 mmHg 52%
    12:00 +26°C° 0.4 mm 2 m/s 668 mmHg 52%
    13:00 +26°C° 0.4 mm 2 m/s 668 mmHg 52%
    14:00 +26°C° 1.1 mm 2 m/s 668 mmHg 55%
    15:00 +25°C° 1.1 mm 2 m/s 668 mmHg 58%
    16:00 +25°C° 1.1 mm 2 m/s 667 mmHg 61%
    17:00 +23°C° 0.8 mm 2 m/s 667 mmHg 69%
    18:00 +21°C° 0.8 mm 1 m/s 667 mmHg 77%
    19:00 +20°C° 0.8 mm 1 m/s 666 mmHg 85%
    20:00 +19°C° 0 mm 1 m/s 666 mmHg 85%
    21:00 +18°C° 0 mm 1 m/s 666 mmHg 86%
    22:00 +16°C° 0 mm 0 m/s 666 mmHg 86%
    23:00 +16°C° 0 mm 1 m/s 666 mmHg 85%

    22 Juin, Samedi

    Heure Température Précipitation Vent Pression Humidité
    00:00 +16°C° 0 mm 1 m/s 666 mmHg 85%
    01:00 +16°C° 0 mm 1 m/s 666 mmHg 84%
    02:00 +16°C° 0 mm 1 m/s 666 mmHg 83%
    03:00 +16°C° 0 mm 1 m/s 666 mmHg 82%
    04:00 +15°C° 0 mm 1 m/s 666 mmHg 82%
    05:00 +16°C° 0 mm 0 m/s 666 mmHg 77%
    06:00 +18°C° 0 mm 0 m/s 667 mmHg 72%
    07:00 +20°C° 0 mm 0 m/s 668 mmHg 66%
    08:00 +22°C° 0 mm 0 m/s 668 mmHg 59%
    09:00 +25°C° 0 mm 1 m/s 669 mmHg 52%
    10:00 +27°C° 0 mm 1 m/s 669 mmHg 45%
    11:00 +27°C° 0 mm 2 m/s 669 mmHg 43%
    12:00 +28°C° 0 mm 2 m/s 669 mmHg 41%
    13:00 +29°C° 0 mm 2 m/s 669 mmHg 38%
    14:00 +28°C° 0 mm 2 m/s 669 mmHg 41%
    15:00 +28°C° 0 mm 2 m/s 669 mmHg 43%
    16:00 +28°C° 0 mm 3 m/s 668 mmHg 46%
    17:00 +25°C° 0 mm 2 m/s 668 mmHg 55%
    18:00 +23°C° 0 mm 2 m/s 667 mmHg 64%
    19:00 +21°C° 0 mm 1 m/s 667 mmHg 72%
    20:00 +20°C° 0 mm 1 m/s 667 mmHg 73%
    21:00 +20°C° 0 mm 1 m/s 667 mmHg 74%
    22:00 +19°C° 0 mm 1 m/s 667 mmHg 74%
    23:00 +19°C° 0 mm 1 m/s 667 mmHg 71%
    Voir plus